Flag for Poland Weather past 2 weeks in Warsaw, Poland

Now
59 °F

Partly sunny.


Feels Like: 58 °F
Forecast: 53 / 66 °F
Wind: 7 mph from Northeast

Location: Warsaw Okecie Airport

Current Time: May 25, 2015 at 8:26:40 PM

Latest Report: May 25, 2015 at 8:00 PM


Visibility: N/A

Pressure: 29.86 "Hg

Humidity: 88%

Dew point: 55 °F

Location of WarsawLocation

Historic Weather in Warsaw — Graph

°F

Warsaw temperature yesterday

Maximum temperature yesterday: 68 °F (at 1:00 PM)
Minimum temperature yesterday: 50 °F (at 3:00 AM)
Average temperature yesterday: 58 °F

Past Weeks' High & Low Weather Summary

 TemperatureHumidityPressure
High79 °F (May 19, 2:30 PM)100% (May 12, 1:00 AM)30.36 "Hg (May 12, 1:00 AM)
Low36 °F (May 16, 3:30 AM)23% (May 16, 10:30 AM)29.71 "Hg (May 14, 2:30 PM)
Average56 °F69%30.01 "Hg
* Reported May 10 7:00 PM — May 25 7:30 PM, Warsaw, Weather by CustomWeather, © 2015

Note: Actual official high and low records may vary slightly from our data, if they occured in-between our weather recording intervals... More about our weather records

Advertising

Warsaw weather history for previous 24 hours

 ConditionsComfort  
Time TempWeatherWind HumidityBarometerVisibility
7:30 PM
Mon, May 25
59 °FPartly sunny.5 mph88%29.86 "HgN/A
7:00 PM59 °FPartly sunny.6 mph88%29.86 "HgN/A
6:30 PM59 °FSprinkles. Broken clouds.6 mph88%29.86 "HgN/A
6:00 PM59 °FSprinkles. Broken clouds.8 mph88%29.89 "HgN/A
5:30 PM59 °FSprinkles. Partly sunny.9 mph88%29.89 "HgN/A
5:00 PM61 °FPartly sunny.7 mph83%29.89 "HgN/A
4:30 PM61 °FPartly sunny.6 mph83%29.89 "HgN/A
4:00 PM61 °FSprinkles. Partly sunny.6 mph83%29.89 "HgN/A
3:30 PM61 °FSprinkles. Partly sunny.10 mph83%29.89 "HgN/A
3:00 PM64 °FPartly sunny.13 mph64%29.92 "HgN/A
2:30 PM64 °FPassing clouds.10 mph60%29.92 "HgN/A
2:00 PM66 °FScattered clouds.8 mph56%29.92 "HgN/A
1:30 PM66 °FPartly sunny.9 mph56%29.92 "HgN/A
1:00 PM66 °FPartly sunny.9 mph52%29.92 "HgN/A
12:30 PM66 °FPartly sunny.8 mph56%29.95 "HgN/A
12:00 PM68 °FScattered clouds.7 mph49%29.95 "HgN/A
11:30 AM68 °FPassing clouds.7 mph56%29.95 "HgN/A
11:00 AM64 °FPassing clouds.7 mph64%29.98 "HgN/A
10:30 AM66 °FPassing clouds.7 mph60%29.98 "HgN/A
10:00 AM64 °FPassing clouds.9 mph64%29.98 "HgN/A
9:30 AM64 °FPassing clouds.9 mph64%29.98 "HgN/A
9:00 AM64 °FSunny.8 mph68%29.98 "Hg10 mi
8:30 AM63 °FSunny.7 mph68%29.98 "Hg10 mi
8:00 AM63 °FSunny.5 mph73%30.01 "Hg10 mi
7:30 AM61 °FSunny.5 mph72%30.01 "Hg10 mi
7:00 AM59 °FPassing clouds.3 mph77%30.01 "HgN/A
6:30 AM57 °FSunny.5 mph82%30.01 "Hg10 mi
6:00 AM55 °FSunny.5 mph88%30.01 "Hg10 mi
5:30 AM55 °FSunny.3 mph82%30.01 "Hg10 mi
5:00 AM55 °FClear.5 mph88%30.01 "Hg10 mi
4:30 AM54 °FClear.5 mph94%30.01 "Hg10 mi
4:00 AM55 °FClear.3 mph88%30.01 "Hg10 mi
3:30 AM55 °FClear.2 mph88%30.01 "Hg10 mi
3:00 AM55 °FClear.2 mph82%30.01 "Hg10 mi
2:30 AM54 °FClear.2 mph88%30.04 "Hg10 mi
2:00 AM52 °FClear.2 mph94%30.04 "Hg10 mi
1:30 AM52 °FClear.2 mph94%30.04 "Hg10 mi
1:00 AM55 °FClear.2 mph88%30.04 "Hg10 mi
12:30 AM54 °FClear.1 mph88%30.04 "Hg10 mi
12:00 AM55 °FClear.1 mph88%30.04 "Hg10 mi
11:30 PM
Sun, May 24
55 °FClear.No wind82%30.04 "Hg10 mi
11:00 PM57 °FClear.3 mph77%30.04 "Hg10 mi
10:30 PM57 °FClear.3 mph77%30.04 "Hg10 mi
10:00 PM55 °FPassing clouds.3 mph82%30.04 "HgN/A
9:30 PM57 °FPassing clouds.5 mph77%30.04 "HgN/A
9:00 PM57 °FPassing clouds.5 mph77%30.04 "HgN/A
8:30 PM59 °FSunny.6 mph72%30.04 "Hg10 mi
8:00 PM61 °FSunny.5 mph68%30.04 "Hg10 mi
Weather by CustomWeather, © 2015

See weather overviewHow to use our weather pages